Dewpoint
70 70 71 72 72 72 70 71 73 73 75 75 75 74 74 75 77 77 74 68 66 65 63 59 57 59 48 46 49 52 52 52 49 52 55 57 59 59 58 59 55 58 56
70 74 72 72 73 72 72 70 71 72 74 74 75 74 74 74 77 77 73 68 65 64 60 57 54 49 53 59 54 59 56 56 53 56 57 54 58 59 60 61 55 54 57
70 71 73 74 75 76 74 73 72 72 72 71 73 74 73 74 76 77 74 69 65 63 58 55 54 52 59 58 58 55 53 53 54 51 51 53 54 56 58 61 58 57 55
69 71 73 72 74 73 74 74 73 73 71 71 73 73 73 75 76 77 73 68 64 62 58 54 51 56 59 59 57 58 57 53 54 50 50 50 51 56 55 56 56 53 54
70 70 71 72 72 73 73 73 73 73 71 71 71 72 74 75 74 76 72 67 63 61 56 50 53 58 58 59 54 59 59 54 51 49 49 51 52 52 53 54 54 53 54
70 71 72 73 72 73 73 73 74 74 73 71 70 70 74 71 68 68 70 66 62 62 51 52 57 57 58 57 57 57 58 58 57 52 51 53 54 53 53 53 56 53 52
71 71 72 73 73 74 74 74 74 74 74 73 71 72 74 74 64 64 64 66 62 59 53 55 51 52 57 55 56 56 56 55 55 57 56 54 54 54 54 55 56 52 52
72 72 73 73 73 74 75 75 76 75 75 74 73 73 75 74 61 60 62 67 61 59 57 55 53 57 57 56 55 55 56 55 56 53 56 55 55 55 55 56 56 53 53
71 72 73 73 74 74 74 76 76 75 76 75 75 76 76 73 58 57 63 66 58 55 55 55 56 57 55 55 54 55 56 55 53 55 54 54 54 54 55 53 53 52 51
71 71 73 74 75 74 75 77 76 76 76 73 75 76 72 76 55 55 62 64 58 50 60 56 56 54 53 53 55 55 55 56 57 56 56 55 57 55 55 56 52 50 49
71 73 73 74 76 76 77 77 77 77 77 76 75 76 77 76 64 53 56 64 56 50 61 53 47 53 50 50 50 57 56 56 55 57 55 54 54 54 53 54 54 52 50
72 71 72 74 75 73 77 77 77 77 77 76 76 76 76 77 62 52 53 55 54 52 56 53 50 50 49 49 50 50 51 52 54 54 52 53 53 53 53 55 56 57 56
71 73 73 73 70 72 76 75 75 77 74 73 72 72 74 74 69 53 50 51 52 53 54 56 50 47 48 50 50 50 50 51 53 52 52 53 54 55 55 55 57 56 56
69 70 70 70 71 71 68 70 70 71 77 71 70 73 71 72 71 63 53 52 54 56 56 54 52 50 51 52 53 50 50 50 54 52 52 54 55 53 52 53 53 51 51
68 69 70 70 70 70 69 68 68 67 60 64 71 72 70 70 70 62 57 54 53 55 57 57 52 52 52 52 51 50 49 47 53 53 53 52 53 52 52 52 53 53 51
68 66 66 68 68 68 68 66 55 57 53 51 51 61 70 62 54 51 49 47 48 52 55 58 61 55 50 49 49 48 48 48 50 53 53 52 52 52 52 52 52 53 52
66 67 68 64 62 66 66 65 65 62 54 53 50 52 53 55 51 50 47 46 47 50 55 56 56 53 48 47 46 46 46 45 55 53 53 52 52 53 51 51 52 52 53
66 56 67 68 69 66 64 63 69 67 67 69 56 53 49 48 48 49 49 52 55 56 61 59 61 58 48 46 44 45 45 47 47 51 53 52 51 53 52 51 51 52 52
64 62 64 68 68 67 70 70 70 70 67 62 60 57 52 46 47 48 53 63 60 60 62 61 61 61 50 46 45 47 50 46 45 49 52 52 51 52 52 51 51 49 51
62 59 60 64 65 65 66 68 67 66 66 66 62 59 60 60 59 59 61 64 63 62 65 62 61 62 58 48 47 48 48 47 48 48 49 52 52 50 51 51 51 51 51
59 61 59 62 60 62 61 62 62 63 63 63 62 61 51 63 65 63 64 63 64 65 65 63 61 61 62 57 49 48 47 46 46 45 47 49 52 50 50 51 51 51 51
56 57 58 58 58 57 57 58 58 58 58 59 60 60 51 62 64 64 63 64 65 65 65 61 60 61 60 57 52 46 44 45 45 43 46 46 47 50 50 49 49 50 51
52 53 53 53 54 53 53 52 53 54 54 54 54 54 55 57 60 63 64 64 65 64 64 63 62 61 62 60 52 50 44 44 47 45 44 45 45 46 49 49 49 50 50
50 49 48 47 47 48 50 49 50 47 49 49 50 50 50 52 53 54 55 59 60 60 63 64 63 61 62 60 55 52 46 47 49 48 48 46 45 45 45 47 49 50 50
47 48 46 44 44 44 43 45 45 46 46 46 46 46 47 48 48 50 51 51 50 50 49 50 56 57 57 55 53 51 45 34 48 45 51 49 49 51 45 43 46 49 51
44 45 46 45 43 42 43 43 40 39 40 42 43 43 44 44 45 44 45 44 45 45 45 45 46 46 47 47 46 43 37 34 45 38 50 52 50 50 48 47 46 43 49
Lifted_Index
-3 -3 -3 -3 -3 -3 -3 -3 -3 -4 -5 -6 -7 -7 -8 -9 -9 -9 -8 -7 -6 -4 -1 3 5 7 7 8 7 6 5 4 4 4 5 5 5 5 4 5 5 6 6
-3 -3 -3 -3 -4 -4 -3 -3 -3 -4 -5 -6 -6 -7 -8 -9 -9 -9 -8 -7 -6 -4 -1 3 6 7 7 6 6 6 5 5 4 4 5 5 5 5 4 5 5 5 6
-3 -4 -4 -4 -4 -4 -4 -3 -3 -3 -4 -5 -6 -6 -7 -8 -9 -9 -8 -7 -6 -5 -2 4 7 7 6 5 6 6 5 5 5 5 6 6 6 5 5 5 5 5 5
-3 -4 -4 -4 -4 -4 -4 -4 -4 -4 -3 -4 -5 -6 -6 -8 -9 -9 -8 -6 -6 -5 -1 4 7 7 6 6 6 6 6 5 5 6 6 6 6 6 5 5 5 5 5
-4 -4 -4 -4 -4 -4 -4 -4 -4 -4 -3 -3 -4 -5 -6 -8 -9 -9 -8 -6 -6 -5 -1 5 8 7 7 7 7 7 6 6 6 6 7 7 6 6 6 5 5 5 5
-4 -4 -4 -4 -4 -4 -4 -4 -4 -4 -4 -3 -3 -4 -6 -7 -8 -9 -8 -7 -6 -5 -1 5 8 7 8 8 9 9 8 7 6 7 7 7 7 6 6 5 5 5 5
-4 -4 -5 -5 -5 -5 -5 -5 -5 -5 -4 -4 -4 -4 -6 -7 -7 -8 -8 -7 -6 -6 -2 4 7 7 7 8 9 9 8 8 8 7 7 7 7 6 5 4 4 5 5
-5 -5 -5 -6 -5 -5 -5 -5 -5 -5 -5 -5 -5 -5 -6 -7 -7 -8 -7 -7 -6 -6 -2 3 6 7 7 8 8 8 8 8 8 8 8 8 7 7 5 4 4 4 5
-6 -6 -6 -6 -6 -5 -5 -6 -6 -6 -6 -6 -5 -6 -6 -7 -7 -7 -7 -7 -6 -6 -2 3 6 7 8 8 8 7 7 8 8 9 9 8 8 7 7 6 5 5 5
-6 -6 -7 -7 -6 -6 -6 -6 -7 -7 -7 -6 -6 -6 -6 -7 -7 -7 -7 -7 -6 -6 -3 1 6 8 10 10 8 7 7 8 8 8 8 8 8 8 8 7 7 6 6
-6 -6 -7 -7 -7 -7 -7 -7 -7 -8 -7 -7 -7 -7 -7 -7 -6 -7 -7 -6 -6 -6 -5 -0 5 9 11 11 9 8 8 8 8 8 8 8 8 9 9 9 8 8 8
-6 -6 -6 -6 -6 -7 -7 -8 -8 -8 -7 -7 -7 -7 -7 -6 -6 -6 -7 -6 -6 -6 -5 -1 5 10 11 11 10 10 10 9 8 7 7 8 8 9 9 9 9 9 9
-5 -5 -5 -5 -6 -6 -7 -7 -8 -7 -7 -7 -7 -7 -6 -6 -5 -6 -6 -6 -6 -6 -5 -1 4 9 10 10 10 11 10 9 7 7 7 8 8 9 9 9 9 9 9
-4 -4 -4 -4 -4 -5 -5 -6 -7 -7 -6 -6 -6 -6 -6 -6 -5 -5 -6 -6 -6 -6 -4 -2 3 7 9 8 9 10 9 8 7 7 7 7 8 8 9 9 9 9 9
-3 -3 -3 -3 -3 -3 -3 -4 -5 -5 -5 -5 -5 -6 -6 -6 -5 -5 -5 -5 -6 -6 -5 -3 0 4 7 7 8 8 9 8 7 6 7 7 8 8 8 9 9 8 8
-3 -3 -3 -2 -2 -1 -1 -1 -3 -3 -4 -5 -5 -5 -6 -6 -5 -5 -5 -5 -5 -5 -5 -4 -2 2 5 7 7 8 8 9 8 7 7 7 8 8 8 8 8 8 8
-3 -3 -3 -2 -1 -1 0 0 -1 -1 -2 -3 -4 -5 -6 -6 -5 -5 -5 -5 -5 -5 -4 -4 -3 0 4 7 7 8 8 9 8 7 7 7 7 8 8 8 8 8 8
-3 -3 -4 -4 -3 -2 -1 -0 -1 -1 -1 -1 -3 -4 -5 -5 -4 -4 -4 -5 -4 -4 -3 -3 -3 -0 4 7 7 8 8 9 9 8 7 7 7 7 7 8 8 8 7
-3 -4 -4 -5 -5 -4 -3 -2 -2 -2 -1 -1 -2 -3 -4 -4 -2 -2 -3 -3 -3 -3 -2 -3 -3 -0 3 6 7 7 8 9 9 8 7 7 7 7 7 7 8 7 7
-3 -4 -4 -4 -4 -4 -3 -3 -3 -3 -2 -2 -2 -3 -3 -2 -1 -1 -1 -1 -1 -1 -2 -2 -2 0 3 5 6 7 7 8 9 9 8 7 7 7 7 7 7 8 7
-3 -3 -3 -3 -3 -3 -3 -3 -3 -3 -3 -3 -3 -3 -2 -1 -1 0 0 1 0 0 -1 -1 -1 0 2 4 5 6 7 8 9 9 9 8 8 7 7 7 7 7 7
-2 -2 -3 -3 -2 -2 -2 -2 -3 -3 -3 -2 -2 -1 -1 -0 0 1 1 2 2 2 1 -0 -1 1 3 4 4 5 7 8 8 9 9 9 8 8 7 7 7 7 7
-2 -2 -2 -2 -2 -2 -1 -1 -1 -1 -1 -1 -0 0 1 1 1 1 2 2 2 2 2 1 0 1 3 4 4 6 7 8 8 8 9 9 9 9 8 8 7 7 7
-1 -2 -2 -2 -2 -2 -1 -1 -0 -0 0 1 1 1 2 2 2 2 2 2 2 2 2 2 1 1 2 4 5 7 8 8 7 7 8 8 9 9 9 8 8 7 7
-0 -1 -1 -1 -1 -1 -1 -0 -0 0 0 1 1 2 2 2 3 3 3 3 3 3 3 3 3 2 2 3 5 7 8 8 7 6 7 7 7 8 8 8 8 8 7
1 0 0 -0 -0 -0 -0 -0 -0 0 1 1 1 2 2 3 3 3 3 4 4 4 4 4 4 3 2 3 5 6 7 7 6 6 6 6 6 6 7 8 9 8 8